Location: Głowno
(51.9557°N, 19.7113°E)
Time: 22:21:31
(UTC+01:00)

ISS - Visible Passes

Search period start: 19 January 2018 00:00
Search period end: 29 January 2018 00:00
Orbit: 402 x 407 km, 51.6° (Epoch: 20 January)

Date Brightness Start Highest point End Pass type
(mag) Time Alt. Az. Time Alt. Az. Time Alt. Az.
26 Jan -1.1 18:55:38 10° SSW 18:56:11 13° SSW 18:56:11 13° SSW visible
27 Jan -2.0 18:03:56 10° S 18:06:11 18° SE 18:06:11 18° SE visible
28 Jan -1.4 17:12:52 10° SSE 17:14:06 12° SE 17:15:19 10° ESE visible
28 Jan -2.2 18:46:49 10° SW 18:48:46 29° SSW 18:48:46 29° SSW visible
